Vorticity
6 7 7 6 6 6 6 6 5 4 4 4 5 5 6 7 8 8 11 14 14 15 16 17 16 16 17 17 17 16 15 13 13 13 13 11 11 12 13 13 13 13 13 14 14 13 14 14 14 14 15 15 15 15 14 14 13 13 12 13 12 12 12 13 13 14 15 15 15 15 13 12 9 7 6 4 3 2 2 2 2 2 2 4 5 5
5 6 5 5 6 6 6 6 7 8 9 11 13 14 15 17 17 17 17 17 17 17 15 13 12 13 13 12 12 12 12 12 12 11 10 9 12 14 14 13 12 12 12 12 12 11 11 10 10 10 10 10 11 12 12 13 13 13 13 12 12 12 12 11 11 12 13 15 16 17 18 18 17 15 13 11 9 7 6 5 5 5 5 5 6 6
7 7 8 9 11 11 12 13 15 17 17 18 18 17 17 17 17 16 14 12 13 14 13 13 15 17 17 17 17 16 17 17 16 17 17 19 22 22 20 19 19 18 16 14 12 11 10 10 10 10 10 10 11 12 12 13 14 15 15 15 15 15 14 13 12 11 11 10 11 12 14 16 19 20 20 20 18 16 14 12 11 10 9 8 8 8
15 16 16 17 18 18 19 19 18 17 16 15 15 14 14 13 14 16 17 17 17 18 18 19 20 21 21 19 19 19 21 22 22 22 23 23 24 24 24 25 24 22 20 18 16 16 15 13 13 12 11 11 11 12 13 14 14 15 15 16 16 16 16 16 16 15 15 13 12 11 10 9 10 12 14 16 17 18 18 18 18 17 16 14 13 12
16 15 14 14 15 14 14 15 14 14 15 16 17 19 19 20 22 23 23 22 21 19 19 17 17 17 15 14 16 18 18 17 16 16 16 17 17 18 19 21 22 23 22 21 19 20 19 18 17 16 14 13 13 12 11 11 10 10 10 10 10 11 12 12 13 13 13 13 13 13 13 12 10 9 9 9 10 11 11 12 14 15 16 17 17 17
17 17 18 18 19 20 20 21 23 23 23 24 24 23 22 21 20 17 15 15 14 13 12 11 13 13 9 10 11 10 8 7 6 6 7 8 9 10 11 14 17 20 22 23 22 22 21 21 21 20 19 19 18 16 15 14 12 11 10 9 9 8 8 9 9 9 9 9 10 10 10 11 11 11 11 11 11 11 11 10 9 10 10 11 12 12
26 26 27 28 27 27 26 24 22 21 20 18 16 14 14 12 10 10 10 10 10 7 6 6 6 5 3 5 5 3 3 3 3 3 3 4 5 6 8 9 11 13 17 20 20 20 19 18 18 18 18 18 18 19 18 18 17 16 16 15 14 13 12 11 10 9 8 8 8 8 8 8 8 8 8 9 9 10 11 10 10 10 11 11 11 12
24 23 23 22 21 18 16 14 13 13 13 11 10 11 12 9 8 8 7 7 6 3 3 4 2 3 3 4 4 3 3 4 4 5 5 5 6 6 7 7 8 9 11 14 16 18 17 16 14 13 13 13 14 14 14 14 14 14 15 15 15 15 15 14 14 14 12 11 10 10 9 8 8 7 7 6 6 7 7 7 8 7 8 9 9 11
18 17 15 14 14 12 10 10 10 10 10 8 7 8 8 6 6 7 6 5 5 4 5 6 5 5 5 5 5 4 4 5 6 6 6 6 6 7 7 8 8 8 9 10 12 14 15 15 13 12 12 11 10 10 10 11 12 13 13 14 14 14 14 14 14 14 14 14 14 13 12 11 11 10 9 8 7 7 7 7 7 6 6 6 5 6
10 8 9 9 9 7 6 7 7 7 7 6 6 8 8 7 9 10 9 8 8 9 9 8 8 8 6 6 6 5 5 5 6 6 5 6 6 7 7 8 9 9 10 10 10 11 13 13 13 12 11 10 8 7 8 10 11 13 15 16 17 17 17 17 17 16 16 16 16 16 16 15 15 14 14 13 12 10 10 9 9 8 8 7 7 7
5 5 6 6 5 5 6 7 7 7 9 8 8 10 9 9 10 10 9 10 10 10 9 9 10 9 8 7 6 6 7 6 6 6 5 5 5 6 7 8 9 10 11 11 11 11 12 12 12 12 11 9 8 7 6 7 9 11 14 16 18 19 19 19 19 19 19 19 19 19 18 18 18 17 17 16 16 15 14 13 12 11 10 9 8 8
6 5 5 5 4 5 6 5 5 6 6 6 6 7 5 5 7 7 5 6 7 7 8 9 10 10 9 8 8 8 8 8 7 6 6 5 5 5 6 7 9 10 12 12 12 13 13 13 13 12 11 10 9 7 5 6 7 9 12 14 16 18 19 19 19 19 19 19 20 20 20 20 20 20 19 19 18 18 18 18 18 17 16 15 13 12
6 6 5 5 6 6 5 5 5 5 4 4 4 4 2 2 3 3 2 3 5 6 7 7 8 9 7 7 7 9 9 8 8 7 7 6 5 5 4 5 7 8 11 13 13 14 14 14 14 14 13 11 10 9 7 7 7 9 11 13 15 17 18 18 17 16 16 17 17 18 19 19 20 20 20 20 20 19 19 19 19 19 19 19 19 19
8 8 7 7 8 7 6 6 7 6 5 5 4 4 3 3 3 3 2 2 3 4 5 5 6 6 5 5 6 8 7 7 9 9 7 7 5 4 3 3 4 6 9 11 13 14 13 14 14 13 12 12 11 10 8 8 8 9 11 12 14 16 17 17 16 15 15 15 15 15 16 17 19 20 20 20 20 19 19 19 18 18 18 18 19 19
8 8 9 8 9 10 9 9 10 9 9 8 8 8 7 6 5 5 4 3 2 4 4 4 5 4 3 4 5 6 6 7 9 8 7 8 7 5 4 3 3 4 6 9 11 13 13 13 13 12 12 11 11 10 8 8 8 9 10 11 13 14 16 16 15 15 14 14 14 13 14 17 19 21 22 22 21 20 19 18 17 17 17 17 18 19
8 7 8 8 8 10 10 10 11 10 10 10 10 11 10 9 8 8 7 5 4 5 4 4 4 3 3 3 4 5 5 6 8 7 7 9 8 6 5 4 3 3 4 7 10 12 13 13 13 12 13 12 11 9 8 8 8 9 9 10 11 13 14 15 15 14 14 13 12 12 13 15 18 21 23 24 24 24 23 21 19 17 16 17 17 19
8 6 7 7 7 9 9 9 9 8 9 10 10 11 11 12 11 9 9 9 7 5 5 6 6 5 5 3 3 4 4 5 8 6 6 9 8 7 6 5 4 3 2 5 8 11 13 12 13 13 13 13 12 10 9 8 8 8 9 9 10 11 12 13 13 12 12 12 11 10 11 13 17 20 21 22 23 23 24 24 23 20 18 17 16 17
8 6 6 6 6 7 8 8 8 7 8 9 9 10 11 12 11 10 11 11 9 7 7 8 6 6 6 2 2 4 2 5 8 5 5 8 8 7 7 5 4 3 2 3 7 10 12 12 13 13 13 13 11 10 9 8 8 8 9 9 10 10 11 12 12 11 11 10 9 7 8 12 16 18 19 20 20 21 21 22 23 22 20 18 17 16
7 7 6 5 6 7 7 8 8 8 8 8 9 10 10 10 10 11 11 10 10 9 8 8 9 10 7 3 3 3 1 5 8 6 6 8 7 7 7 6 4 3 2 2 5 9 11 11 12 12 13 13 12 11 9 8 8 8 8 9 9 9 11 11 11 11 10 10 8 6 7 11 14 17 17 18 18 19 19 19 20 21 21 20 18 17
5 6 5 5 7 7 7 7 7 8 9 8 8 9 9 9 10 10 11 10 10 10 8 7 13 15 7 3 5 3 1 5 6 5 6 8 7 7 7 6 5 4 2 2 4 7 10 10 10 11 12 13 12 10 9 8 7 7 7 7 7 8 9 10 11 11 10 9 7 5 7 11 14 16 17 17 18 18 18 18 18 18 19 20 20 19
5 6 6 6 7 7 7 8 7 7 9 9 8 8 8 9 10 10 11 11 10 11 9 6 11 16 9 6 8 4 3 5 4 4 7 8 8 8 8 8 7 5 3 3 3 6 9 10 10 11 11 11 11 10 9 8 7 7 7 6 6 6 8 10 10 10 10 9 6 5 7 11 15 17 17 18 18 18 18 18 18 17 17 17 17 18
6 6 6 7 7 8 8 8 7 7 9 9 9 7 7 9 10 9 10 10 10 11 11 5 7 15 13 9 8 6 7 7 3 4 6 7 8 8 8 8 7 6 4 3 2 4 9 12 11 10 10 10 11 10 9 8 7 7 6 5 5 6 8 10 10 10 10 8 5 5 8 12 15 17 18 18 18 18 18 18 18 18 17 17 16 16
7 8 8 8 8 9 10 9 8 9 9 9 9 7 8 10 10 9 9 10 10 11 11 7 8 14 14 9 8 8 10 9 5 5 5 6 8 9 9 8 7 6 5 2 2 5 10 12 11 10 10 10 11 10 9 8 7 7 6 5 5 6 8 9 10 10 9 7 5 6 10 13 16 17 18 18 18 18 18 18 17 17 17 17 16 16
8 9 9 10 10 10 12 11 10 10 10 9 9 8 9 9 9 10 9 9 10 10 10 8 9 14 13 8 8 10 10 10 9 7 5 5 8 8 8 9 7 6 5 3 3 6 10 11 11 11 11 11 11 11 10 9 8 7 6 6 6 7 8 9 10 10 8 6 5 8 12 14 17 18 18 18 18 18 17 17 16 16 15 15 15 15
9 9 9 10 10 11 13 12 10 11 11 10 9 8 10 10 10 10 9 9 8 8 11 9 9 14 12 7 9 11 10 10 10 9 7 6 6 7 9 9 8 5 5 4 3 5 9 11 12 11 11 11 12 11 11 10 10 9 7 7 7 7 8 9 10 9 6 5 7 10 13 16 18 18 18 18 17 17 17 16 15 14 13 13 14 14
9 9 9 10 9 9 11 11 10 11 12 10 9 9 10 11 10 9 9 9 6 7 12 11 8 12 12 7 10 12 10 11 12 11 9 7 5 6 9 10 8 6 6 5 2 4 9 12 12 12 11 12 12 12 12 11 11 10 9 8 8 8 10 10 9 7 5 6 9 12 15 17 18 18 17 17 17 17 16 15 13 13 12 12 13 13
9 10 9 10 10 8 10 12 10 11 12 11 9 9 11 11 11 10 9 9 6 6 12 12 8 10 12 9 10 12 10 10 12 12 11 9 6 7 9 10 9 7 6 4 2 4 9 12 12 11 11 12 12 13 13 13 12 11 10 10 10 10 11 10 8 6 6 8 11 14 16 17 17 17 16 16 16 16 14 13 12 11 11 12 12 13
9 10 9 11 11 9 9 11 11 10 12 12 9 8 10 10 10 11 10 9 5 5 10 12 10 11 11 10 11 11 10 9 10 10 11 10 8 7 9 11 9 7 5 3 3 5 9 11 11 11 11 11 12 12 13 13 13 12 11 11 11 11 11 8 6 7 8 11 13 15 16 17 16 15 15 14 14 14 13 11 11 10 10 11 12 13
10 10 10 12 13 10 8 10 11 10 13 13 9 7 10 10 9 11 12 9 5 5 8 10 13 13 10 9 11 11 10 9 9 9 11 11 9 8 9 10 9 7 5 4 4 5 8 11 11 11 11 11 11 12 13 14 13 13 12 12 12 10 8 7 8 10 12 14 15 16 16 16 15 14 13 13 13 12 12 11 10 10 10 11 12 13
10 10 10 12 14 10 8 10 11 10 12 13 8 6 10 11 9 10 12 10 6 6 7 8 13 14 9 8 11 10 9 9 8 8 9 10 10 8 7 8 9 8 7 6 4 4 7 11 12 11 11 11 11 12 13 13 13 13 12 12 10 7 7 9 12 13 14 15 16 16 16 15 14 14 13 12 12 12 11 11 10 11 12 13 14 14
10 11 11 12 14 11 8 10 11 10 13 12 7 8 11 9 8 10 10 11 9 7 8 9 12 13 9 8 11 10 9 9 7 7 8 9 10 8 6 7 10 10 8 6 3 3 6 11 12 11 10 10 11 13 13 13 13 13 12 10 7 7 9 12 14 14 15 16 16 17 16 15 14 14 13 13 12 12 12 12 12 12 13 14 15 15
9 11 11 11 13 13 10 11 12 12 13 9 6 11 12 7 8 10 10 12 12 6 7 11 12 10 8 9 11 11 9 8 7 7 7 8 10 9 7 8 10 11 8 5 3 2 7 12 12 10 9 10 12 13 14 14 13 13 11 8 7 9 12 13 14 15 15 16 17 17 17 16 15 14 14 14 13 13 13 13 13 13 14 16 16 16
8 10 11 10 12 15 12 11 13 14 13 9 8 14 12 7 9 10 9 14 13 6 5 10 11 9 9 9 10 10 10 8 7 7 6 7 9 10 8 8 9 10 8 5 3 3 7 11 11 9 9 10 12 14 14 14 14 12 9 7 8 10 11 11 12 13 14 15 16 17 17 16 15 14 14 14 14 14 13 13 14 14 15 16 16 16
7 8 10 9 10 13 12 12 14 15 12 8 10 14 11 8 10 9 10 16 13 6 5 9 10 10 10 9 9 9 10 8 8 7 5 6 8 9 9 8 8 10 9 6 3 3 6 11 11 9 9 10 12 14 14 14 13 11 8 6 8 9 8 8 9 10 12 13 15 17 17 16 16 15 15 15 15 14 14 14 15 15 16 16 16 16
8 8 9 9 9 10 11 12 12 15 15 9 9 13 10 10 11 9 13 18 12 4 6 8 10 11 11 10 9 9 10 9 9 7 5 6 8 8 9 8 7 10 10 7 3 2 6 11 11 9 9 11 13 14 14 14 13 10 6 5 6 6 5 6 7 9 11 12 15 17 17 16 15 15 16 16 16 15 15 15 16 15 15 16 16 15
9 9 9 9 9 7 10 12 11 15 17 10 8 11 10 11 12 10 15 20 11 4 7 8 10 12 11 10 10 10 10 11 11 8 5 6 7 7 8 7 7 9 10 7 3 2 7 11 11 9 9 11 12 14 14 14 13 9 6 5 5 5 5 6 7 8 10 12 15 17 17 17 16 16 17 17 16 16 15 15 16 15 15 16 16 14
11 12 11 10 9 7 8 11 10 15 17 11 9 10 9 12 13 9 13 18 11 7 9 9 10 12 11 10 11 11 10 11 11 9 7 8 8 7 7 7 7 9 10 8 3 2 7 11 10 9 9 11 12 14 14 14 13 9 6 4 4 4 5 6 7 8 10 12 15 18 18 18 17 17 18 17 17 16 15 15 15 15 15 16 15 14
11 13 12 12 11 9 8 6 7 13 15 11 10 10 8 11 13 9 11 16 12 10 10 10 11 12 11 11 11 11 10 11 12 10 9 9 7 7 8 8 7 9 10 8 3 2 6 10 10 9 10 10 12 13 14 14 12 10 7 5 5 5 6 7 8 9 10 12 15 18 19 18 18 18 18 18 17 16 15 15 15 15 15 15 15 15
11 13 12 12 12 12 10 6 6 10 12 10 11 10 9 11 12 9 10 13 13 11 11 10 11 12 11 11 12 11 10 9 11 11 9 8 7 7 8 9 8 9 11 9 3 2 6 10 10 9 10 10 11 13 14 14 12 10 8 6 6 7 7 8 9 9 10 13 16 19 19 19 18 18 18 18 18 16 15 15 15 14 15 15 16 17
8 11 11 10 12 13 11 9 10 12 11 9 10 10 10 12 12 10 10 12 13 12 10 10 12 11 11 11 12 13 11 9 9 10 9 8 8 7 8 9 8 8 11 9 3 2 7 10 10 10 10 10 11 13 14 13 12 10 8 7 8 8 8 9 10 10 11 13 16 19 20 19 19 19 18 18 18 15 14 14 14 14 14 15 16 18
5 9 10 8 10 12 10 9 13 15 11 9 10 10 11 12 12 10 10 12 13 12 10 11 12 11 11 12 13 13 13 11 9 9 9 9 8 8 9 9 8 8 11 9 4 2 6 10 10 10 9 9 10 12 13 13 11 9 8 8 8 9 9 10 10 10 11 13 17 20 20 19 19 19 19 18 18 16 13 13 14 13 14 16 17 19
3 7 9 7 8 12 10 7 12 16 13 8 9 11 13 13 11 9 10 13 14 12 10 11 12 11 11 13 13 13 13 12 11 10 9 9 8 8 8 9 8 8 10 10 5 2 6 9 10 10 10 9 10 12 13 12 11 9 8 8 8 9 10 10 10 11 11 13 17 20 20 19 18 19 19 18 16 15 14 13 13 13 14 16 18 19
3 5 9 7 6 11 10 6 10 17 14 8 8 10 12 12 11 9 10 13 14 12 10 12 13 12 12 13 14 13 13 13 11 10 10 9 9 8 9 9 8 8 10 10 6 2 5 9 10 10 10 9 10 12 12 12 11 9 8 8 8 9 10 10 11 11 12 14 18 20 20 19 18 19 18 17 15 14 13 13 13 13 14 16 18 18
5 4 9 8 5 9 10 4 8 17 15 9 10 11 11 11 11 10 11 12 13 12 11 12 13 12 12 13 14 14 14 13 11 11 10 10 9 9 9 9 8 7 10 10 6 2 5 9 10 10 10 9 10 12 12 11 10 10 8 8 8 10 11 11 11 11 12 15 19 20 20 18 18 19 18 16 15 14 13 13 13 13 15 16 17 18
7 4 7 8 5 7 7 2 6 16 15 9 10 13 12 12 12 10 10 11 11 12 11 12 13 13 12 12 14 15 15 13 12 11 11 10 9 9 10 9 8 7 10 11 7 2 4 9 10 10 10 9 10 12 11 10 10 10 8 8 9 11 11 11 11 11 13 16 19 20 20 18 18 19 17 15 14 14 13 14 14 14 15 16 17 17
8 5 5 8 6 5 6 3 5 12 12 9 11 13 11 11 13 12 10 10 11 12 12 12 12 12 12 12 13 15 15 14 12 12 11 10 9 10 10 10 8 8 9 11 7 2 4 9 10 10 10 9 10 12 11 9 10 10 8 8 9 11 12 11 11 11 13 17 19 19 19 19 19 19 16 14 14 13 13 14 14 14 15 16 17 17
8 6 5 8 7 5 6 5 5 9 9 7 12 15 11 10 14 13 10 9 11 11 11 12 12 12 12 12 13 15 16 14 12 12 12 10 10 10 10 10 9 8 10 11 7 2 3 8 10 10 10 10 10 11 11 9 10 9 8 8 10 12 12 11 11 12 14 18 20 19 18 20 20 19 16 14 14 13 13 14 14 14 15 16 17 17
7 7 5 8 9 6 5 5 5 8 8 5 9 15 13 10 13 14 11 9 10 10 11 12 12 11 12 13 13 15 17 15 13 13 12 11 10 11 10 10 8 8 10 11 8 2 3 8 10 10 10 10 11 12 10 9 10 9 8 8 10 12 12 11 11 12 15 19 21 19 18 20 20 19 17 15 14 14 14 14 14 15 15 15 17 18
6 7 4 6 9 8 6 5 5 7 7 4 6 13 15 11 11 14 12 10 10 10 10 11 11 10 12 14 13 14 16 16 14 13 12 11 11 11 10 10 9 9 10 11 8 3 3 8 11 9 10 11 11 11 10 9 10 9 8 9 11 12 11 11 11 12 16 20 21 19 19 20 20 18 17 16 16 15 14 14 14 15 16 15 15 16
6 8 4 3 7 9 7 6 6 6 7 6 5 10 15 13 11 13 13 11 11 10 9 11 11 9 12 14 13 14 16 17 15 13 12 12 11 10 11 10 9 9 10 11 9 3 3 8 11 9 10 11 11 11 10 10 10 9 7 8 11 11 10 11 11 13 17 20 20 19 20 21 20 17 17 16 16 17 16 15 14 14 15 17 16 15
7 8 6 3 6 9 7 6 7 6 7 7 5 8 15 14 11 12 14 13 12 11 9 11 10 8 11 14 13 14 17 18 15 13 12 12 11 10 11 10 10 10 10 12 9 3 3 9 11 9 9 11 11 10 10 10 10 9 7 8 10 11 10 11 12 15 18 20 20 20 21 22 20 17 17 16 16 17 18 18 17 13 11 14 17 17
Height
5738 5737 5735 5734 5733 5731 5730 5729 5727 5726 5724 5722 5721 5719 5717 5715 5713 5711 5709 5707 5705 5704 5703 5701 5699 5698 5696 5695 5693 5690 5688 5685 5682 5679 5675 5671 5670 5668 5666 5663 5661 5659 5656 5653 5650 5647 5645 5642 5639 5637 5634 5632 5629 5626 5624 5621 5619 5616 5614 5612 5609 5607 5605 5603 5601 5599 5597 5595 5592 5590 5588 5586 5584 5582 5580 5578 5577 5574 5572 5571 5569 5567 5566 5565 5564 5564
5735 5734 5732 5731 5729 5727 5726 5724 5722 5720 5718 5716 5715 5713 5711 5708 5707 5707 5704 5702 5700 5699 5698 5696 5695 5693 5691 5689 5687 5685 5682 5679 5676 5673 5669 5666 5665 5662 5659 5656 5654 5652 5649 5646 5643 5640 5637 5634 5632 5629 5626 5623 5621 5618 5616 5613 5610 5608 5605 5603 5600 5598 5596 5594 5592 5589 5588 5586 5583 5581 5579 5577 5574 5573 5571 5569 5567 5565 5562 5561 5559 5557 5556 5554 5554 5553
5732 5730 5728 5726 5725 5723 5721 5720 5717 5716 5714 5712 5710 5708 5706 5703 5702 5702 5700 5698 5696 5694 5693 5692 5691 5689 5686 5685 5683 5680 5678 5675 5672 5668 5665 5663 5660 5656 5653 5650 5648 5645 5642 5639 5636 5633 5630 5627 5624 5621 5618 5615 5612 5610 5607 5604 5602 5599 5597 5594 5592 5589 5587 5585 5582 5580 5578 5576 5574 5571 5569 5567 5565 5563 5562 5559 5558 5556 5553 5551 5549 5548 5546 5545 5544 5543
5728 5726 5724 5722 5720 5719 5717 5716 5714 5712 5710 5709 5707 5705 5703 5700 5699 5698 5696 5694 5692 5690 5689 5688 5687 5684 5682 5680 5678 5676 5674 5671 5668 5665 5662 5659 5656 5652 5648 5644 5641 5638 5635 5631 5628 5625 5622 5620 5617 5614 5611 5608 5605 5602 5599 5596 5594 5591 5588 5586 5583 5581 5578 5576 5573 5571 5568 5566 5563 5561 5559 5557 5555 5552 5551 5548 5547 5546 5544 5541 5539 5537 5536 5534 5533 5532
5724 5722 5721 5719 5717 5716 5714 5712 5710 5709 5707 5706 5704 5702 5699 5697 5696 5694 5692 5691 5689 5687 5685 5684 5683 5681 5678 5677 5675 5672 5670 5667 5664 5660 5657 5655 5651 5647 5643 5640 5636 5632 5629 5625 5622 5619 5616 5613 5610 5607 5604 5601 5598 5595 5592 5589 5586 5583 5580 5578 5575 5572 5570 5567 5565 5562 5559 5557 5554 5552 5549 5547 5545 5542 5540 5538 5536 5534 5533 5531 5528 5526 5524 5523 5521 5520
5720 5718 5717 5715 5714 5712 5711 5709 5707 5706 5704 5703 5701 5699 5697 5695 5693 5692 5690 5688 5686 5684 5683 5681 5680 5678 5675 5674 5672 5668 5665 5663 5659 5656 5653 5650 5647 5643 5639 5636 5632 5628 5624 5621 5617 5613 5610 5607 5603 5600 5597 5594 5591 5588 5585 5582 5579 5575 5572 5570 5567 5564 5561 5558 5556 5553 5551 5548 5545 5543 5540 5538 5535 5533 5530 5527 5525 5523 5522 5520 5517 5515 5512 5511 5510 5508
5718 5716 5714 5712 5711 5709 5708 5706 5705 5704 5702 5701 5699 5697 5695 5693 5691 5689 5687 5686 5684 5682 5680 5679 5677 5675 5672 5670 5667 5665 5661 5658 5655 5652 5649 5646 5643 5639 5635 5631 5628 5624 5620 5616 5612 5608 5605 5601 5598 5594 5591 5588 5584 5581 5577 5574 5571 5567 5564 5561 5558 5555 5552 5549 5546 5543 5541 5538 5536 5533 5531 5528 5526 5524 5521 5517 5515 5512 5511 5509 5507 5504 5502 5500 5498 5496
5715 5714 5712 5711 5709 5708 5706 5705 5704 5703 5701 5699 5697 5695 5693 5691 5689 5687 5685 5683 5681 5680 5678 5676 5674 5672 5669 5666 5663 5661 5657 5654 5651 5648 5645 5641 5638 5634 5631 5627 5623 5619 5615 5611 5607 5603 5599 5596 5592 5589 5585 5582 5578 5574 5571 5567 5563 5560 5556 5552 5549 5546 5543 5539 5536 5533 5530 5528 5525 5522 5520 5517 5514 5513 5510 5507 5505 5501 5500 5498 5496 5494 5491 5488 5486 5484
5714 5713 5711 5710 5709 5707 5706 5705 5703 5702 5700 5698 5696 5694 5692 5690 5687 5685 5683 5681 5679 5677 5675 5673 5670 5668 5665 5662 5659 5657 5654 5650 5647 5643 5640 5637 5634 5630 5626 5622 5618 5614 5610 5606 5602 5598 5594 5590 5587 5583 5580 5576 5572 5568 5564 5560 5556 5552 5549 5544 5540 5537 5533 5529 5526 5522 5519 5516 5513 5510 5508 5505 5503 5500 5498 5496 5493 5490 5488 5486 5484 5482 5480 5477 5475 5473
5714 5713 5712 5710 5709 5708 5706 5704 5702 5700 5698 5696 5694 5692 5690 5688 5686 5684 5681 5679 5677 5674 5672 5669 5667 5664 5662 5659 5656 5653 5650 5646 5643 5640 5637 5633 5630 5626 5623 5619 5615 5610 5606 5601 5597 5593 5589 5585 5581 5578 5574 5570 5566 5562 5558 5553 5549 5545 5541 5536 5532 5529 5524 5520 5516 5512 5508 5505 5502 5499 5496 5493 5490 5488 5485 5483 5480 5477 5475 5473 5471 5469 5467 5464 5462 5460
5715 5713 5712 5710 5709 5707 5705 5703 5702 5699 5697 5695 5693 5690 5688 5686 5684 5682 5680 5677 5674 5671 5668 5666 5663 5660 5658 5655 5652 5649 5646 5643 5639 5636 5632 5629 5626 5622 5619 5615 5610 5606 5601 5597 5592 5588 5584 5580 5575 5571 5568 5564 5560 5556 5551 5547 5542 5538 5533 5529 5524 5520 5516 5511 5507 5503 5499 5495 5491 5488 5484 5481 5478 5475 5472 5469 5467 5463 5461 5459 5457 5455 5453 5451 5449 5447
5715 5713 5711 5710 5708 5706 5704 5702 5701 5698 5696 5694 5692 5689 5687 5685 5683 5680 5678 5675 5672 5668 5665 5662 5659 5656 5653 5651 5648 5645 5642 5639 5635 5632 5628 5625 5621 5617 5614 5610 5605 5601 5597 5592 5588 5583 5579 5574 5570 5566 5562 5558 5554 5549 5545 5540 5535 5531 5526 5522 5517 5512 5508 5503 5499 5494 5490 5486 5481 5477 5474 5470 5466 5463 5460 5457 5454 5450 5448 5445 5443 5441 5438 5436 5435 5433
5714 5712 5711 5709 5706 5704 5702 5701 5699 5697 5695 5693 5691 5689 5686 5684 5681 5678 5676 5673 5669 5665 5662 5659 5655 5652 5649 5646 5644 5640 5637 5634 5631 5627 5623 5620 5616 5612 5609 5605 5600 5596 5592 5587 5583 5578 5574 5569 5565 5560 5556 5551 5547 5543 5538 5534 5529 5524 5520 5515 5510 5505 5500 5496 5491 5486 5482 5477 5472 5468 5464 5460 5456 5452 5449 5445 5442 5438 5435 5432 5429 5427 5425 5423 5421 5418
5714 5712 5710 5708 5706 5704 5702 5700 5698 5695 5693 5691 5689 5686 5684 5681 5678 5675 5672 5669 5666 5663 5659 5655 5652 5648 5645 5642 5639 5636 5633 5630 5626 5622 5618 5615 5611 5607 5603 5600 5596 5591 5587 5582 5578 5573 5568 5563 5558 5554 5549 5544 5540 5536 5532 5528 5523 5518 5513 5508 5503 5497 5493 5488 5483 5479 5474 5469 5464 5459 5455 5450 5446 5442 5438 5434 5430 5427 5423 5420 5417 5414 5412 5410 5408 5405
5713 5711 5709 5707 5705 5703 5700 5698 5695 5692 5690 5687 5685 5682 5680 5677 5674 5671 5668 5665 5662 5660 5657 5653 5649 5646 5642 5639 5636 5633 5629 5626 5622 5618 5614 5611 5607 5602 5598 5595 5590 5586 5581 5577 5572 5567 5562 5557 5552 5547 5543 5538 5534 5530 5526 5521 5516 5511 5506 5500 5495 5490 5485 5480 5476 5471 5466 5461 5456 5451 5446 5441 5437 5432 5427 5423 5419 5415 5411 5408 5405 5402 5400 5397 5395 5393
5713 5711 5708 5706 5703 5701 5698 5696 5693 5690 5687 5685 5682 5679 5676 5674 5671 5668 5665 5661 5658 5656 5654 5651 5647 5643 5639 5635 5631 5628 5625 5621 5617 5614 5610 5606 5602 5598 5594 5590 5586 5581 5576 5572 5567 5563 5558 5553 5548 5543 5539 5534 5530 5525 5520 5514 5509 5504 5498 5493 5488 5483 5478 5473 5468 5463 5458 5453 5448 5443 5438 5433 5428 5422 5417 5413 5408 5404 5400 5396 5393 5390 5387 5385 5382 5380
5712 5709 5707 5705 5702 5700 5697 5694 5690 5687 5685 5682 5679 5676 5673 5670 5667 5664 5662 5658 5654 5651 5649 5646 5643 5640 5634 5630 5627 5623 5619 5616 5612 5608 5605 5601 5597 5593 5589 5585 5581 5576 5572 5567 5563 5558 5553 5548 5544 5539 5534 5529 5524 5519 5513 5508 5502 5497 5491 5486 5480 5475 5470 5465 5460 5455 5450 5445 5440 5434 5429 5424 5419 5413 5408 5403 5398 5393 5389 5385 5381 5378 5375 5372 5370 5367
5710 5708 5705 5703 5701 5698 5695 5692 5689 5685 5682 5679 5677 5673 5670 5667 5663 5660 5657 5654 5650 5646 5644 5642 5639 5636 5630 5625 5622 5619 5615 5611 5607 5603 5599 5595 5591 5588 5584 5580 5576 5572 5567 5563 5558 5553 5548 5543 5538 5534 5528 5523 5518 5512 5506 5501 5496 5490 5485 5479 5473 5468 5462 5457 5452 5447 5441 5436 5431 5426 5420 5415 5409 5404 5398 5393 5388 5383 5379 5375 5371 5367 5364 5361 5358 5355
5708 5706 5703 5701 5699 5696 5693 5690 5687 5683 5679 5676 5673 5670 5667 5663 5659 5656 5652 5649 5645 5641 5638 5637 5636 5633 5626 5621 5618 5614 5610 5607 5603 5599 5595 5591 5586 5583 5579 5575 5571 5566 5562 5557 5553 5548 5543 5538 5533 5528 5522 5517 5511 5505 5499 5493 5488 5483 5477 5472 5466 5460 5455 5450 5444 5439 5433 5428 5423 5417 5412 5406 5400 5394 5389 5383 5378 5373 5369 5364 5360 5357 5354 5350 5347 5344
5706 5703 5700 5698 5696 5693 5690 5688 5684 5681 5677 5673 5670 5667 5664 5660 5657 5653 5649 5646 5641 5637 5633 5630 5631 5629 5623 5617 5614 5610 5606 5603 5598 5594 5590 5586 5582 5578 5574 5570 5565 5561 5557 5552 5547 5542 5537 5532 5527 5521 5515 5509 5503 5497 5491 5486 5480 5475 5469 5463 5458 5453 5448 5442 5437 5432 5426 5421 5415 5409 5404 5397 5391 5385 5379 5374 5369 5364 5359 5354 5350 5347 5343 5340 5336 5333
5705 5702 5698 5695 5692 5689 5686 5684 5681 5678 5675 5671 5667 5664 5660 5656 5653 5650 5647 5643 5638 5634 5629 5624 5624 5625 5619 5612 5609 5606 5602 5599 5594 5590 5586 5582 5577 5573 5569 5565 5561 5556 5551 5547 5542 5537 5531 5526 5520 5514 5508 5502 5496 5490 5485 5479 5473 5467 5461 5455 5450 5445 5440 5434 5429 5424 5418 5413 5407 5401 5395 5389 5382 5376 5370 5365 5359 5354 5349 5345 5341 5337 5333 5330 5326 5323
5702 5700 5697 5694 5690 5687 5684 5680 5677 5675 5672 5668 5664 5660 5656 5652 5649 5645 5642 5639 5635 5630 5626 5620 5618 5619 5615 5608 5604 5601 5597 5594 5589 5585 5582 5577 5572 5568 5564 5560 5555 5551 5546 5542 5537 5531 5525 5519 5513 5507 5501 5495 5490 5484 5478 5472 5466 5460 5454 5448 5443 5438 5432 5427 5421 5416 5410 5404 5398 5392 5386 5379 5373 5367 5361 5355 5350 5345 5340 5336 5332 5327 5324 5320 5317 5313
5700 5698 5695 5692 5688 5685 5681 5678 5674 5671 5668 5665 5661 5657 5653 5649 5645 5641 5638 5635 5632 5627 5621 5616 5613 5613 5609 5603 5599 5596 5593 5589 5584 5580 5576 5572 5567 5563 5559 5554 5550 5545 5541 5536 5531 5525 5518 5512 5506 5500 5494 5489 5484 5478 5472 5466 5460 5454 5448 5442 5437 5431 5426 5420 5415 5409 5402 5397 5391 5384 5378 5371 5364 5358 5352 5346 5341 5335 5331 5327 5323 5319 5315 5312 5308 5304
5698 5695 5692 5689 5687 5683 5680 5676 5672 5668 5665 5661 5657 5653 5649 5646 5641 5638 5634 5631 5628 5624 5618 5612 5608 5608 5604 5597 5593 5591 5587 5583 5579 5574 5571 5566 5562 5557 5553 5548 5543 5539 5534 5529 5523 5516 5510 5505 5499 5493 5487 5482 5476 5470 5465 5459 5453 5448 5442 5436 5431 5425 5419 5413 5407 5401 5395 5389 5383 5376 5370 5363 5356 5350 5344 5338 5332 5327 5322 5318 5314 5310 5306 5302 5299 5295
5695 5691 5687 5684 5682 5680 5677 5673 5669 5665 5661 5657 5653 5649 5646 5642 5638 5634 5630 5626 5622 5619 5615 5608 5603 5603 5599 5592 5588 5585 5581 5577 5573 5568 5564 5560 5555 5551 5546 5542 5537 5532 5527 5521 5516 5510 5504 5498 5492 5486 5480 5475 5469 5463 5458 5452 5446 5441 5435 5430 5424 5418 5412 5406 5400 5394 5387 5381 5375 5368 5362 5355 5348 5342 5336 5330 5325 5319 5315 5310 5305 5301 5297 5293 5290 5286
5694 5690 5685 5681 5677 5674 5671 5668 5664 5661 5657 5654 5650 5646 5642 5639 5634 5630 5626 5621 5617 5614 5612 5606 5599 5598 5595 5588 5584 5581 5576 5572 5568 5563 5559 5554 5549 5545 5540 5536 5531 5526 5521 5515 5510 5504 5498 5492 5486 5480 5474 5469 5463 5457 5451 5446 5440 5434 5428 5423 5417 5411 5405 5399 5393 5386 5380 5373 5367 5360 5353 5347 5340 5334 5328 5322 5317 5312 5307 5303 5298 5294 5289 5285 5281 5277
5692 5689 5685 5680 5675 5671 5669 5665 5661 5657 5654 5650 5647 5643 5639 5635 5631 5626 5621 5617 5613 5608 5607 5603 5595 5592 5591 5585 5580 5577 5572 5567 5563 5558 5554 5549 5544 5540 5535 5530 5525 5520 5515 5510 5504 5499 5493 5487 5481 5475 5469 5463 5457 5451 5445 5439 5434 5428 5422 5416 5410 5404 5398 5392 5385 5379 5372 5365 5359 5352 5345 5339 5332 5326 5320 5315 5310 5305 5300 5295 5290 5286 5281 5277 5272 5268
5690 5687 5683 5679 5675 5670 5666 5663 5659 5655 5651 5647 5643 5640 5636 5632 5627 5623 5618 5613 5609 5603 5600 5598 5592 5587 5585 5581 5577 5573 5568 5563 5559 5553 5548 5543 5539 5535 5530 5525 5520 5515 5510 5505 5499 5493 5487 5481 5475 5469 5463 5457 5451 5445 5439 5433 5427 5421 5415 5409 5403 5397 5391 5385 5378 5371 5364 5357 5350 5344 5337 5331 5324 5318 5313 5307 5302 5297 5292 5287 5282 5278 5273 5268 5264 5259
5687 5685 5681 5678 5674 5668 5664 5661 5657 5653 5649 5645 5640 5636 5633 5629 5624 5620 5615 5610 5605 5599 5595 5593 5589 5584 5579 5575 5572 5568 5562 5558 5553 5548 5543 5538 5534 5529 5524 5519 5514 5509 5505 5499 5494 5487 5481 5475 5470 5463 5458 5451 5445 5439 5433 5427 5421 5415 5408 5402 5396 5390 5384 5377 5370 5363 5356 5349 5343 5336 5329 5323 5317 5311 5305 5299 5294 5289 5284 5279 5274 5269 5264 5259 5255 5250
5685 5682 5678 5676 5672 5667 5661 5658 5654 5650 5646 5642 5638 5633 5630 5626 5621 5616 5611 5606 5601 5596 5591 5587 5584 5581 5575 5570 5567 5563 5557 5553 5548 5543 5538 5533 5529 5525 5519 5514 5509 5504 5499 5493 5488 5482 5476 5470 5464 5458 5452 5445 5439 5433 5427 5421 5414 5408 5402 5395 5389 5383 5377 5370 5363 5356 5349 5342 5335 5329 5322 5316 5309 5303 5297 5292 5286 5281 5276 5271 5266 5261 5256 5250 5245 5240
5682 5678 5675 5672 5669 5665 5659 5655 5651 5647 5643 5639 5635 5630 5626 5623 5619 5613 5608 5603 5597 5592 5588 5583 5579 5577 5571 5566 5562 5558 5553 5548 5544 5539 5533 5529 5525 5520 5515 5509 5504 5498 5493 5487 5482 5477 5471 5465 5458 5452 5446 5440 5434 5427 5421 5414 5408 5401 5395 5389 5383 5377 5370 5364 5356 5349 5342 5335 5328 5322 5315 5309 5302 5295 5289 5284 5278 5273 5267 5262 5257 5252 5247 5242 5236 5231
5679 5675 5672 5668 5666 5662 5657 5653 5648 5644 5639 5635 5631 5627 5623 5619 5616 5611 5605 5599 5594 5588 5584 5580 5575 5571 5566 5561 5557 5553 5548 5544 5539 5534 5529 5524 5520 5514 5509 5504 5499 5493 5488 5482 5477 5471 5465 5459 5453 5447 5441 5434 5428 5422 5415 5408 5402 5395 5389 5383 5377 5370 5364 5357 5350 5342 5336 5328 5322 5315 5308 5301 5294 5288 5282 5276 5270 5265 5259 5254 5249 5243 5239 5234 5228 5223
5677 5673 5669 5665 5662 5659 5654 5650 5646 5641 5636 5632 5627 5624 5620 5615 5612 5608 5603 5596 5591 5585 5580 5576 5572 5567 5561 5556 5552 5548 5544 5539 5535 5529 5523 5519 5515 5509 5504 5498 5493 5488 5483 5478 5472 5466 5460 5454 5448 5442 5435 5429 5422 5415 5409 5402 5396 5390 5383 5377 5371 5364 5357 5350 5343 5336 5329 5322 5315 5308 5301 5294 5287 5280 5274 5268 5262 5256 5251 5245 5240 5235 5230 5225 5219 5214
5676 5671 5666 5662 5658 5655 5651 5647 5644 5639 5633 5628 5624 5620 5616 5611 5608 5605 5600 5594 5587 5581 5576 5572 5567 5562 5557 5551 5545 5542 5539 5534 5530 5525 5518 5514 5510 5504 5499 5494 5489 5484 5479 5473 5467 5461 5455 5449 5442 5436 5430 5423 5416 5410 5403 5397 5390 5384 5378 5371 5365 5358 5351 5344 5337 5330 5323 5315 5307 5300 5293 5287 5280 5273 5267 5260 5254 5248 5243 5237 5232 5227 5222 5217 5211 5206
5674 5669 5665 5660 5655 5651 5648 5643 5640 5637 5631 5624 5620 5616 5612 5607 5603 5600 5598 5592 5583 5577 5572 5568 5563 5558 5553 5547 5541 5536 5533 5530 5526 5520 5513 5509 5505 5499 5495 5490 5484 5479 5473 5468 5462 5456 5450 5444 5437 5431 5424 5417 5411 5404 5398 5391 5385 5378 5372 5366 5359 5352 5345 5338 5330 5323 5315 5308 5300 5293 5286 5279 5272 5265 5259 5253 5246 5241 5235 5229 5224 5219 5214 5209 5203 5198
5672 5667 5663 5658 5652 5648 5644 5640 5635 5633 5630 5623 5618 5614 5608 5604 5598 5595 5594 5590 5581 5573 5568 5563 5559 5554 5548 5543 5537 5532 5528 5525 5522 5516 5509 5504 5500 5494 5489 5485 5479 5474 5468 5463 5457 5451 5445 5439 5432 5425 5419 5412 5405 5399 5392 5386 5379 5373 5366 5359 5353 5346 5338 5331 5324 5316 5308 5301 5293 5286 5279 5272 5265 5258 5251 5245 5239 5233 5227 5222 5217 5212 5207 5202 5197 5191
5670 5666 5660 5655 5650 5645 5641 5637 5632 5629 5625 5620 5615 5610 5605 5600 5594 5589 5588 5586 5578 5570 5564 5559 5554 5549 5544 5538 5533 5528 5523 5519 5517 5512 5505 5500 5496 5490 5485 5480 5474 5469 5464 5458 5453 5446 5440 5433 5427 5420 5414 5407 5400 5394 5387 5380 5374 5367 5360 5353 5346 5339 5332 5324 5317 5309 5301 5294 5286 5278 5271 5264 5257 5251 5244 5238 5232 5226 5221 5215 5210 5205 5200 5195 5190 5185
5668 5664 5658 5653 5648 5642 5637 5633 5628 5623 5620 5615 5610 5605 5600 5596 5591 5584 5581 5580 5574 5567 5561 5555 5550 5545 5539 5534 5529 5523 5518 5513 5511 5508 5502 5497 5492 5486 5480 5475 5470 5465 5459 5453 5448 5442 5435 5429 5422 5415 5409 5402 5395 5388 5381 5375 5368 5361 5354 5347 5340 5333 5325 5318 5310 5302 5294 5287 5279 5271 5264 5257 5250 5244 5237 5231 5225 5219 5214 5209 5204 5198 5193 5189 5184 5179
5666 5661 5656 5651 5646 5640 5634 5630 5625 5620 5615 5611 5606 5601 5596 5591 5587 5581 5576 5573 5569 5563 5557 5552 5546 5540 5535 5529 5524 5519 5513 5508 5505 5502 5497 5492 5487 5481 5476 5471 5465 5460 5454 5449 5443 5437 5430 5424 5417 5410 5404 5397 5390 5383 5376 5369 5362 5355 5348 5341 5333 5326 5319 5311 5304 5296 5288 5280 5272 5264 5256 5249 5243 5236 5230 5224 5218 5212 5207 5203 5197 5192 5187 5182 5177 5173
5664 5659 5654 5649 5644 5638 5632 5627 5624 5619 5613 5607 5602 5597 5592 5588 5583 5577 5571 5567 5563 5558 5552 5546 5541 5535 5530 5524 5519 5514 5508 5502 5498 5495 5491 5486 5481 5476 5471 5466 5460 5454 5449 5444 5438 5432 5425 5419 5412 5405 5398 5391 5384 5377 5370 5363 5357 5350 5342 5335 5328 5320 5313 5305 5297 5289 5281 5273 5265 5257 5250 5243 5236 5230 5223 5218 5212 5206 5200 5196 5191 5185 5180 5176 5171 5166
5662 5658 5653 5647 5642 5637 5630 5624 5620 5617 5611 5605 5599 5594 5588 5584 5579 5573 5567 5562 5558 5552 5547 5542 5536 5531 5525 5520 5514 5509 5504 5498 5492 5488 5484 5480 5475 5470 5465 5460 5455 5449 5444 5438 5432 5426 5419 5413 5406 5399 5392 5386 5379 5372 5365 5358 5351 5344 5337 5329 5322 5314 5307 5299 5291 5282 5274 5266 5258 5250 5243 5236 5229 5223 5217 5211 5206 5200 5194 5189 5184 5179 5174 5170 5165 5160
5660 5656 5651 5645 5639 5635 5629 5622 5616 5613 5608 5603 5597 5591 5586 5580 5574 5569 5564 5559 5553 5547 5542 5537 5532 5526 5520 5515 5510 5504 5499 5494 5488 5483 5479 5474 5469 5464 5459 5454 5449 5443 5438 5432 5426 5420 5413 5407 5400 5394 5387 5380 5373 5367 5360 5353 5346 5339 5332 5324 5316 5309 5301 5293 5284 5276 5268 5260 5252 5244 5236 5229 5222 5216 5210 5205 5199 5194 5188 5183 5178 5172 5168 5163 5159 5154
5657 5653 5649 5643 5637 5632 5627 5620 5613 5607 5603 5599 5593 5588 5582 5577 5571 5565 5560 5555 5549 5543 5537 5532 5527 5521 5515 5510 5505 5499 5494 5489 5484 5478 5473 5468 5463 5458 5453 5448 5443 5437 5432 5426 5420 5414 5408 5401 5395 5388 5382 5375 5368 5361 5355 5348 5341 5334 5326 5318 5311 5303 5295 5287 5279 5270 5262 5254 5245 5237 5230 5222 5216 5210 5204 5199 5193 5188 5183 5177 5172 5166 5161 5157 5153 5148
5655 5650 5646 5640 5635 5629 5624 5618 5613 5606 5600 5595 5590 5584 5579 5573 5567 5561 5556 5551 5545 5539 5533 5528 5522 5516 5510 5505 5500 5495 5489 5484 5478 5473 5468 5463 5457 5452 5447 5442 5437 5431 5426 5420 5414 5409 5402 5396 5389 5383 5376 5370 5363 5356 5349 5342 5336 5328 5320 5313 5305 5298 5290 5281 5273 5265 5256 5248 5239 5231 5224 5216 5209 5204 5198 5192 5187 5182 5176 5171 5166 5160 5155 5151 5147 5143
5653 5648 5644 5639 5633 5628 5623 5617 5612 5606 5598 5592 5588 5583 5577 5570 5564 5557 5551 5546 5541 5535 5529 5523 5518 5512 5506 5500 5495 5490 5484 5479 5473 5468 5462 5458 5452 5447 5442 5437 5431 5426 5421 5415 5409 5403 5397 5391 5384 5378 5371 5364 5358 5351 5344 5337 5330 5323 5315 5307 5300 5292 5284 5276 5268 5259 5250 5242 5234 5226 5218 5211 5203 5198 5192 5186 5181 5176 5170 5166 5161 5155 5150 5146 5141 5137
5651 5645 5641 5637 5632 5627 5622 5615 5610 5604 5597 5589 5583 5578 5573 5567 5561 5554 5547 5542 5536 5530 5524 5519 5513 5507 5501 5495 5490 5485 5480 5474 5468 5463 5458 5453 5448 5442 5437 5432 5426 5421 5415 5410 5404 5398 5392 5386 5379 5372 5366 5359 5352 5345 5338 5331 5325 5318 5310 5302 5294 5287 5279 5271 5262 5253 5245 5236 5228 5220 5213 5206 5198 5192 5186 5181 5175 5170 5164 5160 5155 5150 5145 5141 5136 5132
5648 5643 5638 5634 5628 5623 5618 5612 5607 5602 5595 5587 5580 5574 5568 5563 5557 5550 5544 5538 5532 5527 5521 5514 5509 5503 5497 5491 5485 5480 5475 5469 5463 5458 5453 5448 5442 5437 5432 5427 5421 5416 5410 5405 5399 5393 5387 5381 5374 5368 5361 5354 5347 5340 5333 5326 5320 5313 5305 5297 5289 5281 5273 5265 5257 5248 5239 5231 5223 5215 5208 5201 5194 5188 5181 5175 5170 5164 5158 5153 5149 5145 5140 5136 5132 5128
5645 5640 5634 5630 5626 5619 5614 5608 5603 5599 5593 5584 5577 5571 5565 5559 5554 5548 5541 5535 5529 5523 5517 5511 5504 5498 5492 5486 5480 5475 5470 5464 5458 5453 5448 5443 5437 5432 5427 5422 5416 5411 5406 5400 5394 5389 5382 5376 5370 5363 5356 5349 5342 5335 5328 5321 5315 5307 5300 5292 5284 5276 5268 5260 5251 5242 5234 5226 5218 5210 5202 5196 5189 5183 5177 5171 5165 5159 5154 5148 5143 5139 5134 5130 5126 5123
5641 5636 5630 5626 5622 5617 5610 5604 5599 5595 5591 5584 5576 5568 5562 5556 5550 5545 5538 5531 5525 5519 5513 5507 5501 5494 5488 5482 5476 5470 5465 5460 5454 5448 5443 5438 5433 5428 5422 5417 5411 5406 5401 5395 5389 5384 5377 5371 5365 5358 5351 5344 5337 5330 5323 5316 5310 5302 5295 5287 5279 5271 5263 5255 5246 5237 5229 5221 5212 5205 5197 5191 5184 5179 5173 5167 5161 5155 5149 5143 5138 5134 5129 5124 5120 5117
5637 5632 5626 5620 5616 5612 5606 5600 5594 5588 5585 5580 5573 5566 5559 5552 5546 5541 5535 5528 5522 5515 5509 5503 5497 5490 5484 5478 5471 5466 5461 5455 5449 5444 5439 5433 5428 5423 5418 5412 5407 5401 5396 5390 5384 5379 5373 5367 5360 5353 5346 5340 5333 5325 5318 5312 5305 5298 5290 5282 5275 5267 5259 5250 5241 5232 5223 5215 5207 5200 5193 5186 5180 5174 5168 5163 5157 5152 5145 5138 5131 5127 5125 5121 5116 5111
5633 5628 5622 5616 5611 5606 5601 5597 5590 5583 5578 5573 5568 5562 5555 5548 5542 5536 5530 5524 5518 5511 5505 5498 5492 5486 5479 5473 5467 5461 5456 5450 5444 5439 5434 5429 5423 5418 5413 5407 5402 5397 5391 5385 5380 5374 5368 5362 5356 5349 5342 5335 5328 5321 5314 5307 5301 5293 5286 5278 5270 5262 5254 5246 5237 5228 5219 5211 5203 5195 5188 5182 5176 5170 5164 5158 5153 5148 5143 5136 5128 5120 5115 5114 5112 5108